This demonstration page uses our WeatherBlox Daily Observations layout. Learn more.

Left ArrowRight Arrow

Hourly Observations for October 28, 2016

Temp ( °F °C ) Dew Point ( °F °C ) Humidity (%) Winds ( mph kmh ) Pressure ( in mb ) Visibility ( mi km ) Precip ( " mm )
12:15 am 00:15 Clear 54 12 54 12 100 100 N 6 9 30.12 1020 10 16 N/A
12:35 am 00:35 Clear 54 12 52 11 94 94 N 7 11 30.12 1020 10 16 N/A
12:55 am 00:55 Clear 54 12 52 11 94 94 NNW 13 20 30.12 1020 10 16 N/A
1:15 am 01:15 Clear 54 12 50 10 88 88 N 10 17 30.12 1020 10 16 N/A
1:35 am 01:35 Clear 54 12 48 9 82 82 N 7 11 30.12 1020 10 16 N/A
1:55 am 01:55 Clear 54 12 46 8 77 77 NNW 7 11 30.15 1021 10 16 N/A
2:15 am 02:15 Partly Cloudy 54 12 46 8 77 77 NNW 14 22 30.15 1021 10 16 N/A
2:35 am 02:35 Partly Cloudy 54 12 43 6 67 67 NNW 23 37 30.12 1020 10 16 N/A
2:55 am 02:55 Clear 54 12 43 6 67 67 NNW 24 39 30.15 1021 10 16 N/A
3:15 am 03:15 Clear 54 12 43 6 67 67 NNW 20 31 30.15 1021 10 16 N/A
3:35 am 03:35 Clear 52 11 43 6 72 72 NW 22 35 30.15 1021 10 16 N/A
3:55 am 03:55 Clear 52 11 43 6 72 72 NW 13 20 30.15 1021 10 16 N/A
4:15 am 04:15 Clear 52 11 43 6 72 72 NW 12 19 30.15 1021 10 16 N/A
4:35 am 04:35 Clear 52 11 43 6 72 72 NW 16 26 30.15 1021 10 16 N/A
4:55 am 04:55 Clear 52 11 41 5 67 67 NW 22 35 30.21 1023 10 16 N/A
5:15 am 05:15 Clear 52 11 41 5 67 67 WNW 22 35 30.21 1023 10 16 N/A
5:35 am 05:35 Clear 50 10 41 5 71 71 NW 15 24 30.24 1024 10 16 N/A
5:55 am 05:55 Partly Cloudy 50 10 41 5 71 71 WNW 13 20 30.24 1024 10 16 N/A
6:15 am 06:15 Partly Cloudy 50 10 41 5 71 71 WNW 13 20 30.24 1024 10 16 N/A
6:35 am 06:35 Partly Cloudy 50 10 41 5 71 71 W 13 20 30.24 1024 10 16 N/A
6:55 am 06:55 Mostly Cloudy 50 10 43 6 76 76 W 8 13 30.27 1025 10 16 N/A
7:15 am 07:15 Cloudy 52 11 41 5 67 67 W 7 11 30.27 1025 10 16 N/A
7:35 am 07:35 Cloudy 52 11 41 5 67 67 WNW 9 15 30.27 1025 10 16 N/A
7:55 am 07:55 Cloudy 52 11 41 5 67 67 WNW 12 19 30.27 1025 10 16 N/A
8:15 am 08:15 Cloudy 52 11 41 5 67 67 WNW 9 15 30.30 1026 10 16 N/A
8:35 am 08:35 Cloudy 52 11 41 5 67 67 WNW 14 22 30.30 1026 10 16 N/A
8:55 am 08:55 Cloudy 52 11 43 6 72 72 NW 12 19 30.30 1026 10 16 N/A
9:15 am 09:15 Cloudy 52 11 43 6 72 72 NW 9 15 30.33 1027 10 16 N/A
9:35 am 09:35 Cloudy 52 11 43 6 72 72 NW 8 13 30.33 1027 10 16 N/A
9:55 am 09:55 Mostly Cloudy 54 12 43 6 67 67 WNW 14 22 30.33 1027 10 16 N/A
10:15 am 10:15 Mostly Cloudy 54 12 43 6 67 67 WNW 8 13 30.33 1027 10 16 N/A
10:35 am 10:35 Cloudy 55 13 43 6 63 63 WNW 25 41 30.30 1026 10 16 N/A
10:55 am 10:55 Mostly Cloudy 54 12 41 5 63 63 NW 20 31 30.33 1027 10 16 N/A
11:15 am 11:15 Partly Cloudy 55 13 41 5 59 59 WNW 25 41 30.30 1026 10 16 N/A
11:35 am 11:35 Sunny 57 14 41 5 55 55 WNW 22 35 30.30 1026 10 16 N/A
11:55 am 11:55 Sunny 57 14 41 5 55 55 W 22 35 30.27 1025 10 16 N/A
12:15 pm 12:15 Partly Cloudy 57 14 43 6 59 59 W 18 30 30.27 1025 10 16 N/A
12:35 pm 12:35 Partly Cloudy 57 14 41 5 55 55 WNW 20 31 30.27 1025 10 16 N/A
12:55 pm 12:55 Sunny 59 15 43 6 55 55 WNW 20 31 30.27 1025 10 16 N/A
1:15 pm 13:15 Sunny 59 15 41 5 51 51 W 18 30 30.27 1025 10 16 N/A
1:35 pm 13:35 Sunny 59 15 41 5 51 51 WNW 16 26 30.27 1025 10 16 N/A
1:55 pm 13:55 Sunny 59 15 39 4 48 48 NW 20 31 30.24 1024 10 16 N/A
2:15 pm 14:15 Sunny 61 16 41 5 48 48 NNW 18 30 30.24 1024 10 16 N/A
2:35 pm 14:35 Sunny with Nearby Thunderstorms 61 16 39 4 45 45 NW 21 33 30.24 1024 10 16 N/A
2:55 pm 14:55 Sunny 61 16 39 4 45 45 WNW 13 20 30.21 1023 10 16 N/A
3:15 pm 15:15 Sunny 61 16 39 4 45 45 NNW 12 19 30.21 1023 10 16 N/A
3:35 pm 15:35 Sunny 61 16 37 3 42 42 NW 13 20 30.21 1023 10 16 N/A
3:55 pm 15:55 Sunny 61 16 39 4 45 45 NW 10 17 30.24 1024 10 16 N/A
4:15 pm 16:15 Sunny 61 16 39 4 45 45 NNW 13 20 30.24 1024 10 16 N/A
4:35 pm 16:35 Sunny 61 16 39 4 45 45 NW 12 19 30.21 1023 10 16 N/A
4:55 pm 16:55 Sunny 61 16 37 3 42 42 NNW 9 15 30.24 1024 10 16 N/A
5:15 pm 17:15 Sunny 59 15 41 5 51 51 WNW 8 13 30.21 1023 10 16 N/A
5:35 pm 17:35 Sunny 59 15 39 4 48 48 NW 9 15 30.24 1024 10 16 N/A
5:55 pm 17:55 Sunny 57 14 39 4 51 51 NW 7 11 30.21 1023 10 16 N/A
6:15 pm 18:15 Clear 55 13 39 4 55 55 NW 3 6 30.24 1024 10 16 N/A
6:35 pm 18:35 Clear 55 13 37 3 51 51 NNW 3 6 30.24 1024 10 16 N/A
6:55 pm 18:55 Clear 55 13 37 3 51 51 NW 6 9 30.24 1024 10 16 N/A
7:15 pm 19:15 Clear 54 12 39 4 58 58 WNW 5 7 30.24 1024 10 16 N/A
7:35 pm 19:35 Clear 50 10 41 5 71 71 WNW 6 9 30.30 1026 10 16 N/A
7:55 pm 19:55 Clear 46 8 41 5 82 82 W 5 7 30.30 1026 10 16 N/A
8:15 pm 20:15 Clear 48 9 41 5 76 76 W 5 7 30.30 1026 10 16 N/A
8:35 pm 20:35 Clear 46 8 41 5 82 82 WSW 5 7 30.30 1026 10 16 N/A
8:55 pm 20:55 Clear 45 7 41 5 87 87 WSW 5 7 30.30 1026 10 16 N/A
9:15 pm 21:15 Clear 45 7 41 5 87 87 W 5 7 30.30 1026 10 16 N/A
9:35 pm 21:35 Clear 43 6 41 5 93 93 WSW 3 6 30.30 1026 10 16 N/A
9:55 pm 21:55 Clear 45 7 39 4 81 81 N N/A 30.30 1026 10 16 N/A
10:15 pm 22:15 Clear 46 8 41 5 82 82 N N/A 30.30 1026 10 16 N/A
10:35 pm 22:35 Clear 45 7 39 4 81 81 N N/A 30.30 1026 10 16 N/A
10:55 pm 22:55 Clear 45 7 41 5 87 87 N N/A 30.30 1026 10 16 N/A
11:15 pm 23:15 Clear 46 8 39 4 76 76 N N/A 30.30 1026 10 16 N/A
11:35 pm 23:35 Clear 43 6 41 5 93 93 N N/A 30.30 1026 10 16 N/A
11:55 pm 23:55 Clear 45 7 41 5 87 87 N N/A 30.30 1026 10 16 N/A

Powered by AerisWeather